N8SHA Weather Reports


time (UTC)temp
F
wind
direction
speed
knots
gust
knots
rain 1hr
in
rain 24hr
in
rain mn
in
humidity
%
barometer
mb
20260509000440 61 134 2.6 4.3 0.00 0.00 0.00 35 1006.7
20260508235935 62 193 1.7 5.2 0.00 0.00 0.00 35 1006.7
20260508235433 62 163 1.7 5.2 0.00 0.00 0.00 34 1006.7
20260508234929 62 170 0.9 2.6 0.00 0.00 0.00 36 1006.4
20260508234426 62 186 0.9 6.1 0.00 0.00 0.00 35 1006.7
20260508233924 62 167 2.6 4.3 0.00 0.00 0.00 35 1006.5
20260508233423 62 168 1.7 2.6 0.00 0.00 0.00 35 1006.5
20260508232920 62 207 0.9 2.6 0.00 0.00 0.00 34 1006.6
20260508232417 63 135 0.0 3.5 0.00 0.00 0.00 35 1006.6
20260508231914 64 141 0.0 2.6 0.00 0.00 0.00 33 1006.6
20260508231411 64 160 2.6 5.2 0.00 0.00 0.00 32 1006.5
20260508230908 65 115 1.7 3.5 0.00 0.00 0.00 33 1006.7
20260508230404 65 193 0.0 4.3 0.00 0.00 0.00 33 1006.5
20260508225901 65 52 1.7 4.3 0.00 0.00 0.00 32 1006.7
20260508225358 65 166 1.7 5.2 0.00 0.00 0.00 32 1006.8
20260508224856 65 154 2.6 5.2 0.00 0.00 0.00 33 1006.7
20260508224353 66 235 1.7 5.2 0.00 0.00 0.00 33 1006.8
20260508223850 65 60 0.9 3.5 0.00 0.00 0.00 32 1006.9
20260508223348 65 181 3.5 6.1 0.00 0.00 0.00 32 1006.8
20260508222846 65 123 1.7 6.1 0.00 0.00 0.00 33 1006.9
20260508222342 64 160 0.0 7.8 0.00 0.00 0.00 32 1006.8
20260508221839 64 194 3.5 6.1 0.00 0.00 0.00 33 1006.9
20260508221334 66 166 4.3 7.8 0.00 0.00 0.00 30 1006.9
20260508220831 66 182 2.6 9.6 0.00 0.00 0.00 31 1006.8
20260508220327 67 183 3.5 8.7 0.00 0.00 0.00 31 1006.8
20260508215824 67 173 2.6 5.2 0.00 0.00 0.00 31 1006.9
20260508215321 66 118 2.6 6.1 0.00 0.00 0.00 30 1007.0
20260508214818 68 336 1.7 2.6 0.00 0.00 0.00 31 1006.9
20260508214315 67 132 1.7 5.2 0.00 0.00 0.00 31 1007.2
20260508213811 66 218 2.6 10.4 0.00 0.00 0.00 32 1007.2
20260508213308 67 181 4.3 7.8 0.00 0.00 0.00 31 1007.1
20260508212804 66 287 2.6 7.8 0.00 0.00 0.00 32 1007.1
20260508212301 66 342 3.5 6.1 0.00 0.00 0.00 34 1007.2
20260508211756 66 320 1.7 6.1 0.00 0.00 0.00 33 1007.4
20260508211252 66 199 2.6 7.8 0.00 0.00 0.00 31 1007.2
20260508210750 68 233 1.7 4.3 0.00 0.00 0.00 31 1007.2
20260508210247 68 135 0.0 4.3 0.00 0.00 0.00 33 1007.3
20260508205744 67 165 3.5 6.1 0.00 0.00 0.00 30 1007.5
20260508205240 68 358 0.9 5.2 0.00 0.00 0.00 31 1007.4
20260508204737 68 193 4.3 5.2 0.00 0.00 0.00 29 1007.5
20260508204233 68 200 1.7 2.6 0.00 0.00 0.00 29 1007.4
20260508203729 67 227 4.3 7.0 0.00 0.00 0.00 30 1007.5
20260508203225 66 167 4.3 7.8 0.00 0.00 0.00 30 1007.6
20260508202721 66 324 3.5 6.1 0.00 0.00 0.00 33 1007.8
20260508202219 67 59 0.9 4.3 0.00 0.00 0.00 37 1007.8
20260508201716 66 240 1.7 6.1 0.00 0.00 0.00 29 1007.9
20260508201212 66 93 1.7 7.0 0.00 0.00 0.00 31 1008.1
20260508200709 66 166 3.5 4.3 0.00 0.00 0.00 33 1007.9
20260508200205 66 303 3.5 7.8 0.00 0.00 0.00 32 1008.0
20260508195702 66 183 2.6 8.7 0.00 0.00 0.00 31 1008.2
20260508195158 65 336 5.2 5.2 0.00 0.00 0.00 32 1008.4
20260508194655 64 325 2.6 5.2 0.00 0.00 0.00 35 1008.4
20260508194152 64 14 0.9 2.6 0.00 0.00 0.00 36 1008.6
20260508193649 64 263 2.6 5.2 0.00 0.00 0.00 33 1008.6
20260508193145 64 40 1.7 6.1 0.00 0.00 0.00 34 1008.7
20260508192642 63 272 0.0 5.2 0.00 0.00 0.00 33 1008.6
20260508192140 64 151 2.6 7.0 0.00 0.00 0.00 31 1008.9
20260508191636 65 5 1.7 3.5 0.00 0.00 0.00 33 1008.8
20260508191133 64 321 0.9 6.1 0.00 0.00 0.00 36 1009.0
20260508190630 64 209 0.0 4.3 0.00 0.00 0.00 35 1009.2
20260508190127 63 189 0.9 7.0 0.00 0.00 0.00 32 1009.0
20260508185624 63 267 1.7 6.1 0.00 0.00 0.00 35 1008.9
20260508185121 62 258 1.7 7.0 0.00 0.00 0.00 35 1009.0
20260508184618 63 168 2.6 7.8 0.00 0.00 0.00 34 1009.0
20260508184115 64 31 0.0 6.1 0.00 0.00 0.00 32 1009.3
20260508183612 63 182 4.3 5.2 0.00 0.00 0.00 31 1009.4
20260508183107 63 305 0.9 4.3 0.00 0.00 0.00 32 1009.3
20260508182604 63 196 3.5 6.1 0.00 0.00 0.00 33 1009.3
20260508182055 63 199 1.7 7.0 0.00 0.00 0.00 36 1009.5
20260508181550 62 64 0.0 3.5 0.00 0.00 0.00 36 1009.5
20260508181048 62 217 2.6 4.3 0.00 0.00 0.00 32 1009.4
20260508180545 62 13 1.7 7.0 0.00 0.00 0.00 35 1009.8
20260508180041 62 337 3.5 6.1 0.00 0.00 0.00 38 1009.7
20260508175538 64 135 0.0 2.6 0.00 0.00 0.00 38 1009.7
20260508175035 64 96 0.0 4.3 0.00 0.00 0.00 35 1010.0
20260508174533 62 4 1.7 3.5 0.00 0.00 0.00 32 1010.0
20260508174029 61 359 4.3 6.1 0.00 0.00 0.00 34 1010.0
20260508173526 62 331 2.6 7.0 0.00 0.00 0.00 33 1010.3
20260508173022 61 161 2.6 4.3 0.00 0.00 0.00 33 1010.4
20260508172519 61 323 5.2 8.7 0.00 0.00 0.00 34 1010.5
20260508172016 62 317 2.6 7.0 0.00 0.00 0.00 40 1010.5
20260508171512 61 158 1.7 5.2 0.00 0.00 0.00 33 1010.1
20260508171009 61 151 3.5 6.1 0.00 0.00 0.00 31 1010.5
20260508170506 60 137 0.0 4.3 0.00 0.00 0.00 40 1010.7
20260508170004 61 310 0.9 4.3 0.00 0.00 0.00 40 1010.7
20260508165501 61 193 1.7 6.1 0.00 0.00 0.00 35 1010.7
20260508164956 61 305 1.7 4.3 0.00 0.00 0.00 34 1010.7
20260508164454 61 332 2.6 5.2 0.00 0.00 0.00 37 1010.8
20260508163950 60 116 0.9 3.5 0.00 0.00 0.00 39 1010.9
20260508163448 59 325 2.6 9.6 0.00 0.00 0.00 35 1011.1
20260508162944 60 322 2.6 6.1 0.00 0.00 0.00 39 1011.0
20260508162442 61 167 3.5 6.1 0.00 0.00 0.00 36 1011.1
20260508161938 60 205 1.7 2.6 0.00 0.00 0.00 37 1011.2
20260508161436 59 233 1.7 4.3 0.00 0.00 0.00 36 1011.2
20260508160933 59 323 3.5 5.2 0.00 0.00 0.00 38 1011.2
20260508160432 60 322 2.6 5.2 0.00 0.00 0.00 39 1011.2
20260508155927 60 54 0.9 4.3 0.00 0.00 0.00 38 1011.2
20260508155425 60 146 0.0 2.6 0.00 0.00 0.00 42 1011.3
20260508154921 60 226 0.0 1.7 0.00 0.00 0.00 40 1011.4
20260508154419 60 94 1.7 3.5 0.00 0.00 0.00 43 1011.5
20260508153915 59 188 2.6 8.7 0.00 0.00 0.00 37 1011.6
20260508153413 59 218 1.7 5.2 0.00 0.00 0.00 39 1011.4
20260508152909 58 104 0.9 4.3 0.00 0.00 0.00 39 1011.5
20260508152405 58 55 2.6 3.5 0.00 0.00 0.00 43 1011.4
20260508151902 58 107 3.5 6.1 0.00 0.00 0.00 39 1011.3
20260508151359 58 343 1.7 3.5 0.00 0.00 0.00 44 1011.3
20260508150855 58 356 1.7 5.2 0.00 0.00 0.00 44 1011.5
20260508150352 57 337 0.0 3.5 0.00 0.00 0.00 40 1011.6
20260508145848 56 25 3.5 4.3 0.00 0.00 0.00 36 1011.6
20260508145344 57 198 1.7 4.3 0.00 0.00 0.00 32 1011.8
20260508144841 56 29 2.6 4.3 0.00 0.00 0.00 41 1011.8
20260508144339 55 41 0.9 4.3 0.00 0.00 0.00 44 1011.8
20260508143836 55 177 3.5 6.1 0.00 0.00 0.00 43 1011.7
20260508143333 55 156 2.6 7.0 0.00 0.00 0.00 42 1011.7
20260508142830 54 336 3.5 5.2 0.00 0.00 0.00 48 1011.7
20260508142327 52 31 0.0 4.3 0.00 0.00 0.00 49 1011.6
20260508141823 52 156 2.6 3.5 0.00 0.00 0.00 44 1011.8
20260508141320 52 12 2.6 2.6 0.00 0.00 0.00 52 1011.7
20260508140818 51 94 1.7 3.5 0.00 0.00 0.00 52 1011.7
20260508140315 51 63 1.7 4.3 0.00 0.00 0.00 51 1011.8
20260508135810 51 164 1.7 3.5 0.00 0.00 0.00 51 1011.8
20260508135306 51 126 1.7 2.6 0.00 0.00 0.00 55 1012.0
20260508134756 50 36 2.6 2.6 0.00 0.00 0.00 56 1012.2
20260508134254 50 93 0.0 2.6 0.00 0.00 0.00 55 1012.2
20260508133751 49 98 0.0 2.6 0.00 0.00 0.00 57 1012.0
20260508133248 49 100 1.7 3.5 0.00 0.00 0.00 55 1012.2
20260508132746 49 88 1.7 4.3 0.00 0.00 0.00 55 1011.9
20260508132243 50 38 0.9 2.6 0.00 0.00 0.00 54 1012.0
20260508131739 50 86 0.9 1.7 0.00 0.00 0.00 57 1012.0
20260508131235 49 120 0.0 2.6 0.00 0.00 0.00 57 1012.1
20260508130732 48 109 1.7 2.6 0.00 0.00 0.00 58 1012.1
20260508130229 49 166 0.0 2.6 0.00 0.00 0.00 59 1012.0
20260508125725 49 129 0.0 1.7 0.00 0.00 0.00 58 1012.2
20260508125221 51 131 1.7 2.6 0.00 0.00 0.00 58 1012.0
20260508124720 50 358 1.7 2.6 0.00 0.00 0.00 58 1012.1
20260508124216 49 49 0.0 2.6 0.00 0.00 0.00 64 1012.0
20260508123715 48 147 0.9 1.7 0.00 0.00 0.00 67 1012.2
20260508123212 47 129 0.0 1.7 0.00 0.00 0.00 69 1012.1
20260508122708 47 93 0.9 2.6 0.00 0.00 0.00 71 1012.1
20260508122205 46 114 0.0 1.7 0.00 0.00 0.00 75 1012.0
20260508121703 45 112 1.7 2.6 0.00 0.00 0.00 77 1011.9
20260508121201 43 94 0.0 1.7 0.00 0.00 0.00 79 1012.0
20260508120658 43 93 0.0 1.7 0.00 0.00 0.00 80 1011.8
20260508120156 42 128 1.7 1.7 0.00 0.00 0.00 80 1011.5
20260508115654 42 116 1.7 1.7 0.00 0.00 0.00 80 1011.8
20260508115150 41 78 0.0 2.6 0.00 0.00 0.00 80 1011.6
20260508114647 41 102 0.9 2.6 0.00 0.00 0.00 81 1011.5
20260508114144 41 89 0.0 1.7 0.00 0.00 0.00 81 1011.7
20260508113641 40 100 0.9 1.7 0.00 0.00 0.00 82 1011.3
20260508113139 39 113 0.0 1.7 0.00 0.00 0.00 83 1011.3
20260508112635 39 77 0.0 1.7 0.00 0.00 0.00 84 1011.6
20260508112132 39 112 1.7 1.7 0.00 0.00 0.00 84 1011.5
20260508111628 39 92 0.9 1.7 0.00 0.00 0.00 85 1011.4
20260508111125 38 95 0.9 1.7 0.00 0.00 0.00 85 1011.3
20260508110618 38 89 0.9 1.7 0.00 0.00 0.00 86 1011.2
20260508110113 38 106 0.0 1.7 0.00 0.00 0.00 86 1011.3
20260508105608 38 93 0.9 1.7 0.00 0.00 0.00 86 1011.3
20260508105106 37 104 1.7 1.7 0.00 0.00 0.00 86 1011.2
20260508104603 37 104 1.7 1.7 0.00 0.00 0.00 86 1011.2
20260508104100 37 102 0.9 1.7 0.00 0.00 0.00 86 1011.2
20260508103557 37 104 1.7 1.7 0.00 0.00 0.00 86 1011.2
20260508103054 37 105 0.9 1.7 0.00 0.00 0.00 86 1011.2
20260508102552 37 101 1.7 1.7 0.00 0.00 0.00 86 1011.2
20260508102049 37 82 0.9 1.7 0.00 0.00 0.00 85 1011.1
20260508101547 37 106 0.9 2.6 0.00 0.00 0.00 86 1011.2
20260508101044 37 105 0.9 1.7 0.00 0.00 0.00 86 1011.4
20260508100542 37 108 1.7 2.6 0.00 0.00 0.00 86 1011.2
20260508100038 37 116 1.7 2.6 0.00 0.00 0.00 86 1011.4
20260508095536 37 107 1.7 2.6 0.00 0.00 0.00 86 1011.2
20260508095032 37 94 0.9 2.6 0.00 0.00 0.00 86 1011.3
20260508094529 37 85 0.9 2.6 0.00 0.00 0.00 86 1011.4
20260508094026 37 60 0.0 2.6 0.00 0.00 0.00 86 1011.3
20260508093523 37 116 0.9 1.7 0.00 0.00 0.00 86 1011.3
20260508093021 37 55 0.0 1.7 0.00 0.00 0.00 86 1011.5
20260508092518 37 57 0.0 2.6 0.00 0.00 0.00 87 1011.3
20260508092017 37 114 2.6 2.6 0.00 0.00 0.00 87 1011.4
20260508091514 37 124 1.7 2.6 0.00 0.00 0.00 87 1011.5
20260508091010 37 122 1.7 2.6 0.00 0.00 0.00 86 1011.5
20260508090509 37 103 0.9 1.7 0.00 0.00 0.00 86 1011.5
20260508090005 37 101 0.9 1.7 0.00 0.00 0.00 85 1011.5
20260508085501 37 120 1.7 1.7 0.00 0.00 0.00 85 1011.5
20260508084958 38 74 0.9 1.7 0.00 0.00 0.00 84 1011.6
20260508084455 38 95 1.7 2.6 0.00 0.00 0.00 84 1011.5
20260508083953 38 126 0.9 2.6 0.00 0.00 0.00 84 1011.4
20260508083449 38 76 1.7 2.6 0.00 0.00 0.00 84 1011.4
20260508082945 38 103 0.0 2.6 0.00 0.00 0.00 84 1011.4
20260508082442 38 74 1.7 2.6 0.00 0.00 0.00 84 1011.6
20260508081940 38 70 0.0 1.7 0.00 0.00 0.00 83 1011.5
20260508081436 38 110 0.9 1.7 0.00 0.00 0.00 83 1011.6
20260508080932 38 99 0.0 1.7 0.00 0.00 0.00 83 1011.6
20260508080431 39 92 0.9 1.7 0.00 0.00 0.00 82 1011.5
20260508075927 39 92 0.9 1.7 0.00 0.00 0.00 82 1011.7
20260508075424 39 80 0.0 1.7 0.00 0.00 0.00 81 1011.5
20260508074922 39 103 0.9 1.7 0.00 0.00 0.00 81 1011.5
20260508074419 40 108 1.7 1.7 0.00 0.00 0.00 81 1011.6
20260508073916 40 98 1.7 2.6 0.00 0.00 0.00 81 1011.5
20260508073413 39 85 1.7 2.6 0.00 0.00 0.00 80 1011.4